S51UL-6 Weather Reports


Display with metric or nautical units.
time (UTC)temp
F
wind
direction
speed
MPH
gust
MPH
rain 1hr
in
rain 24hr
in
rain mn
in
humidity
%
barometer
mb
20260902152618 80 135 1.0 4.0 0.24 9.99 0.00 52 1019.3
20260902151618 81 158 4.0 4.0 0.24 9.99 0.00 51 1019.2
20260902151118 81 158 4.0 4.0 0.14 9.99 0.00 51 1019.3
20260902150118 82 158 4.0 5.0 0.04 9.99 0.00 50 1019.5
20260902145619 82 158 4.0 5.0 0.04 9.99 0.00 48 1019.7
20260902145118 83 158 4.0 5.0 0.04 9.99 0.00 48 1019.6
20260902144618 83 158 3.0 5.0 0.04 9.99 0.00 49 1019.4
20260902144118 84 158 3.0 4.0 0.04 9.99 0.00 49 1019.5
20260902143618 84 135 4.0 9.0 0.06 9.99 0.00 49 1019.6
20260902143118 84 135 5.0 9.0 0.06 9.99 0.00 48 1019.4
20260902142118 84 158 5.0 6.0 0.20 9.99 0.00 49 1019.6
20260902141620 84 135 4.0 6.0 0.20 9.99 0.00 48 1019.7
20260902141118 85 135 4.0 6.0 0.20 9.99 0.00 47 1019.7
20260902135619 86 158 5.0 7.0 0.24 9.99 0.00 46 1019.7
20260902135119 86 158 4.0 6.0 0.26 9.99 0.00 46 1020.0
20260902134619 86 158 4.0 8.0 0.30 9.99 0.00 47 1019.9
20260902134118 85 158 4.0 8.0 0.30 9.99 0.00 46 1019.9
20260902133119 86 158 4.0 5.0 0.32 9.99 0.00 45 1019.9
20260902132619 86 158 4.0 4.0 0.28 9.99 0.00 45 1020.0
20260902132119 86 158 4.0 7.0 0.24 9.99 0.00 44 1019.9
20260902131119 87 135 4.0 7.0 0.22 9.99 0.00 43 1020.0
20260902130619 88 135 4.0 5.0 0.30 9.99 0.00 44 1020.0
20260902130119 87 135 4.0 5.0 0.47 9.99 0.00 44 1020.1
20260902125620 88 158 4.0 5.0 0.45 9.99 0.00 43 1020.3
20260902125119 88 135 4.0 5.0 0.67 9.99 0.00 44 1020.3
20260902124619 88 158 2.0 5.0 0.67 9.99 0.00 43 1020.2
20260902124120 88 158 2.0 4.0 0.84 9.99 0.00 43 1020.2
20260902123620 89 135 3.0 4.0 0.84 9.99 0.00 45 1020.4
20260902123120 89 135 4.0 5.0 0.92 9.99 0.00 45 1020.4
20260902122121 89 135 2.0 4.0 1.16 9.99 0.00 44 1020.4
20260902121620 89 135 2.0 4.0 1.16 9.99 0.00 45 1020.6
20260902120621 90 180 1.0 4.0 1.20 9.99 0.00 43 1021.0
20260902120120 89 158 2.0 4.0 1.32 9.99 0.00 45 1021.1
20260902115120 90 158 1.0 5.0 1.06 9.99 0.00 44 1021.0
20260902114121 90 135 1.0 3.0 0.92 9.99 0.00 47 1021.1
20260902113620 90 135 1.0 4.0 0.85 9.99 0.00 47 1021.2
20260902113121 90 135 1.0 4.0 0.89 9.99 0.00 48 1021.1
20260902112121 90 158 2.0 4.0 0.69 9.99 0.00 46 1021.6
20260902111621 92 158 1.0 4.0 0.69 9.99 0.00 45 1021.8
20260902110121 89 158 1.0 3.0 0.43 9.99 0.00 51 1021.7
20260902104121 85 135 0.0 2.0 0.41 9.99 0.00 57 1021.9
20260902103621 83 158 0.0 2.0 0.30 9.99 0.00 57 1022.2
20260902103121 82 158 0.0 0.0 0.30 9.99 0.00 57 1022.3
20260902101621 80 180 1.0 3.0 0.35 9.99 0.00 60 1022.3
20260902094621 78 158 0.0 0.0 0.28 9.99 0.00 65 1022.6
20260902094121 78 158 0.0 0.0 0.28 9.99 0.00 66 1022.8
20260902090625 76 68 0.0 0.0 0.26 9.99 0.00 68 1022.7
20260902081623 75 23 0.0 0.0 0.39 9.99 0.00 73 1023.0
20260902073123 67 23 1.0 3.0 0.02 9.99 0.00 88 1023.2
20260902072623 66 23 0.0 3.0 0.02 9.99 0.00 89 1023.1
20260902071123 64 23 0.0 0.0 0.00 9.99 0.00 89 1022.9
20260902070124 63 23 1.0 5.0 0.00 9.99 0.00 90 1022.8
20260902064124 62 338 0.0 0.0 0.00 9.99 0.00 90 1022.8
20260902063623 62 23 0.0 0.0 0.00 9.99 0.00 90 1022.9
20260902062948 62 23 0.0 0.0 0.00 9.99 0.00 90 1022.8
20260902062624 62 23 0.0 0.0 0.00 9.99 0.00 90 1022.8
20260902060625 61 23 0.0 0.0 0.00 9.99 0.00 90 1023.0
20260902060127 61 23 0.0 0.0 0.00 9.99 0.00 90 1023.0
20260902055624 61 23 0.0 0.0 0.00 9.99 0.00 90 1022.9
20260902054624 61 23 0.0 0.0 0.00 9.99 0.00 90 1023.0
20260902053625 60 23 0.0 0.0 0.00 9.99 0.00 90 1023.0
20260902052124 60 23 1.0 5.0 0.00 9.99 0.00 90 1022.8
20260902051624 60 23 0.0 0.0 0.00 9.99 0.00 90 1022.7
20260902051124 60 23 0.0 0.0 0.00 9.99 0.00 90 1022.7
20260902050624 60 23 0.0 0.0 0.00 9.99 0.00 90 1023.0
20260902045625 60 23 0.0 0.0 0.00 9.99 0.00 90 1022.8
20260902045125 60 23 0.0 0.0 0.00 9.99 0.00 90 1022.8
20260902044624 60 23 0.0 0.0 0.00 9.99 0.00 90 1022.7
20260902042625 60 0 0.0 0.0 0.00 9.99 0.00 90 1022.9
20260902042125 59 0 0.0 0.0 0.00 9.99 0.00 90 1022.9
20260902041129 59 23 0.0 0.0 0.00 9.99 0.00 90 1022.8
20260902040625 59 23 0.0 0.0 0.00 9.99 0.00 89 1022.8
20260902040129 59 23 0.0 0.0 0.00 9.99 0.00 89 1022.7
20260902035128 59 23 0.0 0.0 0.00 9.99 0.00 89 1022.6
20260902033625 60 23 0.0 2.0 0.00 9.99 0.00 89 1022.5
20260902032627 60 0 0.0 0.0 0.00 9.99 0.00 89 1022.6
20260902031626 60 0 0.0 0.0 0.02 9.99 0.00 89 1022.6
20260902031128 60 0 0.0 0.0 0.02 9.99 0.00 89 1022.5
20260902030128 60 338 0.0 0.0 0.04 9.99 0.00 89 1022.5
20260902022626 60 23 0.0 0.0 0.06 9.99 0.00 88 1022.6
20260902022128 60 23 0.0 0.0 0.04 9.99 0.00 88 1022.5
20260902021626 60 23 0.0 0.0 0.04 9.99 0.00 87 1022.3
20260902020626 60 23 0.0 0.0 0.18 9.99 0.00 87 1022.7
20260902020129 60 23 0.0 0.0 0.39 9.99 0.00 87 1022.8
20260902015128 60 23 1.0 3.0 0.51 9.99 0.00 87 1023.1
20260902010628 59 203 0.0 0.0 1.55 9.99 0.00 87 1022.8
20260902005630 57 180 0.0 0.0 1.41 9.99 0.00 86 1022.5
20260902005224 57 90 0.0 0.0 1.34 9.99 0.00 86 1022.7
20260902005127 57 90 0.0 0.0 1.34 9.99 0.00 86 1022.7
20260902004631 57 45 0.0 0.0 1.28 9.99 0.00 85 1022.2
20260902003628 56 45 0.0 0.0 1.37 9.99 0.00 85 1022.0
20260902001127 56 45 0.0 0.0 1.22 9.99 0.00 85 1021.9
20260902000128 56 45 0.0 0.0 1.45 9.99 0.00 84 1022.0
20260901234630 56 45 0.0 0.0 1.49 9.99 0.00 84 1022.2
20260901234129 56 45 0.0 0.0 1.65 9.99 0.00 84 1022.2
20260901233128 56 45 0.0 0.0 1.45 9.99 0.00 84 1022.0
20260901231130 57 45 0.0 0.0 1.32 9.99 0.00 83 1022.0
20260901225132 57 45 0.0 0.0 1.12 9.99 0.00 83 1021.9
20260901222629 58 45 0.0 0.0 0.98 9.99 0.00 82 1021.8
20260901221629 58 45 0.0 0.0 1.16 9.99 0.00 82 1021.8
20260901220630 58 45 0.0 0.0 1.06 9.99 0.00 81 1021.8
20260901220132 58 45 0.0 0.0 1.08 9.99 0.00 82 1021.7
20260901215129 58 45 0.0 0.0 1.22 9.99 0.00 81 1021.7
20260901213630 59 135 0.0 0.0 1.30 9.99 0.00 81 1021.8
20260901212629 59 135 0.0 0.0 1.12 9.99 0.00 80 1021.8
20260901211130 59 135 0.0 0.0 1.04 9.99 0.00 80 1021.6
20260901210131 60 135 0.0 0.0 0.96 9.99 0.00 79 1021.6
20260901205130 60 135 0.0 0.0 0.89 9.88 0.00 79 1021.5
20260901204630 60 135 0.0 0.0 0.80 9.76 0.00 78 1021.5
20260901204130 60 135 0.0 0.0 0.87 9.76 0.00 78 1021.4
20260901203131 60 135 0.0 0.0 0.77 9.59 0.00 77 1021.4
20260901202632 60 135 0.0 0.0 0.82 9.53 0.00 76 1021.3
20260901201630 61 135 0.0 0.0 1.53 9.51 0.00 76 1021.3
20260901200633 61 135 0.0 0.0 1.71 9.28 0.00 76 1021.4
20260901200130 61 135 0.0 0.0 1.75 9.12 0.00 75 1021.2
20260901195631 61 135 0.0 0.0 1.69 9.06 0.00 75 1021.3
20260901195131 62 135 0.0 0.0 1.84 9.04 0.00 74 1021.4
20260901194631 62 135 0.0 0.0 1.77 8.96 0.00 74 1021.1
20260901193131 63 135 0.0 0.0 1.77 8.71 0.00 73 1021.0
20260901192631 63 135 0.0 0.0 1.10 8.00 0.00 72 1021.0
20260901192131 63 135 0.0 0.0 1.18 7.98 0.00 72 1021.1
20260901191631 64 135 0.0 0.0 1.18 7.98 0.00 71 1021.3
20260901190631 64 135 0.0 0.0 0.96 7.57 0.00 70 1020.9
20260901190132 64 135 0.0 0.0 0.98 7.36 0.00 70 1021.0
20260901185631 65 135 0.0 0.0 0.82 7.20 0.00 70 1021.0
20260901185131 65 135 0.0 0.0 0.87 7.18 0.00 69 1021.0
20260901184632 65 135 0.0 0.0 0.75 7.06 0.00 68 1020.9
20260901184131 65 135 0.0 0.0 0.92 7.06 0.00 67 1020.7
20260901183132 66 135 0.0 0.0 0.85 6.90 0.00 66 1020.6
20260901182131 67 135 0.0 0.0 1.41 6.79 0.00 65 1020.6
20260901181633 68 135 0.0 0.0 1.41 6.79 0.00 64 1020.7
20260901180632 69 135 0.0 0.0 1.22 6.61 0.00 62 1020.6
20260901180132 69 135 0.0 0.0 1.00 6.39 0.00 61 1020.5
20260901175633 70 135 0.0 0.0 0.92 6.30 0.00 59 1020.5
20260901174134 72 135 0.0 0.0 0.77 6.14 0.00 57 1020.0
20260901173632 72 158 0.0 0.0 0.67 6.04 0.00 56 1020.0
20260901173133 73 158 0.0 0.0 0.16 5.53 0.00 55 1020.1
20260901172633 73 135 0.0 0.0 0.12 5.49 0.00 54 1020.0
20260901172132 74 158 0.0 0.0 0.16 5.39 0.00 54 1020.0
20260901171633 74 135 0.0 0.0 0.16 5.39 0.00 54 1019.7
20260901171132 74 135 0.0 0.0 0.24 5.39 0.00 54 1020.0
20260901170133 75 135 0.0 0.0 0.51 5.39 0.00 53 1019.9
20260901164633 76 135 0.0 0.0 0.57 5.37 0.00 53 1020.0
20260901164133 76 135 0.0 0.0 0.71 5.37 0.00 53 1020.0
20260901163634 77 135 0.0 0.0 0.92 5.37 0.00 53 1019.8
20260901161134 78 135 0.0 0.0 1.12 5.06 0.00 51 1019.9
20260901160636 78 158 1.0 3.0 1.20 5.06 0.00 51 1020.1
20260901160133 78 135 2.0 3.0 1.22 4.88 0.00 51 1020.1
20260901155633 78 135 0.0 3.0 1.14 4.79 0.00 51 1020.0
20260901155134 79 135 0.0 2.0 1.22 4.79 0.00 51 1020.0
20260901154134 79 135 0.0 3.0 1.39 4.65 0.00 51 1020.2
20260901153634 79 135 1.0 3.0 1.24 4.45 0.00 50 1020.3